Location: Killam
(52.7910°N, 111.8608°W)
Time: 11:51:26
(UTC+00:00)

BEESAT - Visible Passes

Search period start: 15 March 2026 00:00
Search period end: 25 March 2026 00:00
Orbit: 684 x 692 km, 98.4° (Epoch: 14 March)

Date Brightness Start Highest point End Pass type
(mag) Time Alt. Az. Time Alt. Az. Time Alt. Az.
15 Mar ? 06:38:11 10° NNE 06:38:18 11° NNE 06:38:18 11° NNE visible
15 Mar ? 08:15:52 10° N 08:16:54 15° N 08:16:54 15° N visible
16 Mar ? 07:16:22 10° NNE 07:17:10 15° NNE 07:17:10 15° NNE visible
16 Mar ? 08:54:53 10° NNW 08:55:46 13° NNW 08:55:46 13° NNW visible
17 Mar ? 07:54:50 10° N 07:56:03 17° N 07:56:03 17° N visible
18 Mar ? 06:55:34 10° NNE 06:56:19 14° NNE 06:56:19 14° NNE visible
18 Mar ? 08:33:36 10° N 08:34:55 16° NNW 08:34:55 16° NNW visible
19 Mar ? 07:33:53 10° N 07:35:11 19° N 07:35:11 19° N visible
19 Mar ? 09:12:57 10° NNW 09:13:46 12° NNW 09:13:46 12° NNW visible
20 Mar ? 06:34:52 10° NNE 06:35:27 13° NNE 06:35:27 13° NNE visible
20 Mar ? 08:12:28 10° N 08:14:03 19° NNW 08:14:03 19° NNW visible
21 Mar ? 07:13:00 10° NNE 07:14:19 19° NNE 07:14:19 19° NNE visible
21 Mar ? 08:51:24 10° NNW 08:52:54 15° NNW 08:52:54 15° NNW visible
22 Mar ? 06:14:18 10° NE 06:14:35 11° NE 06:14:35 11° NE visible
22 Mar ? 07:51:25 10° N 07:53:10 22° N 07:53:10 22° N visible
23 Mar ? 06:52:11 10° NNE 06:53:26 18° NNE 06:53:26 18° NNE visible
23 Mar ? 08:30:08 10° N 08:32:02 19° NNW 08:32:02 19° NNW visible
24 Mar ? 07:30:27 10° NNE 07:32:17 24° N 07:32:17 24° N visible
24 Mar ? 09:09:21 10° NNW 09:10:53 14° NW 09:10:53 14° NW visible
